Temperature
18 19 19 19 19 19 20 20 19 19 19 18 18 18 18 18 18 18 17 16 15 15 14 14 14 13 13 13 13 12 12 12 11 11 11 11 11 11 12 12 12 12 12
18 18 19 19 19 19 19 19 19 19 19 18 18 17 17 17 16 16 15 15 15 14 14 13 13 13 13 13 13 12 12 12 12 11 10 10 11 12 12 12 12 12 13
17 17 18 18 18 19 19 19 18 18 18 18 17 17 16 16 15 15 15 14 14 13 13 13 13 13 13 13 13 13 12 12 12 12 11 10 10 12 12 12 12 12 11
16 16 17 17 17 17 17 17 17 17 17 17 16 16 15 15 14 14 14 14 13 13 13 13 13 13 13 13 13 13 13 13 12 12 11 11 11 10 11 12 12 12 11
15 15 16 16 16 16 16 16 16 16 15 15 15 14 14 14 13 13 13 13 13 12 12 12 12 12 12 12 12 12 12 12 12 12 11 11 11 10 10 10 11 12 12
15 15 15 15 15 15 15 15 15 14 14 14 14 13 13 13 13 13 13 12 12 12 12 12 12 12 12 11 11 12 11 11 11 11 11 11 11 11 10 10 11 11 12
16 15 15 15 15 14 14 14 13 13 13 13 13 12 12 12 12 11 11 11 11 11 11 11 11 11 11 11 11 11 11 11 11 11 11 11 11 11 10 10 11 11 11
16 16 15 15 14 13 13 13 13 12 12 12 12 12 12 12 11 11 11 10 10 10 10 10 10 11 11 11 11 11 10 10 10 10 10 10 10 10 10 10 10 10 10
16 15 15 14 13 12 12 12 12 12 12 12 12 11 11 11 10 10 10 10 9 9 9 9 9 9 9 9 9 9 9 9 9 9 9 9 9 10 10 9 9 9 9
15 14 13 12 12 12 11 11 11 11 11 11 11 10 10 10 10 9 9 9 8 8 8 8 8 8 8 8 7 8 8 8 8 8 8 8 9 9 9 9 9 8 8
14 13 12 12 11 11 11 11 11 11 11 11 10 10 10 9 9 8 8 8 7 7 7 7 7 6 6 6 6 6 6 6 6 6 6 7 7 7 7 8 8 7 7
14 12 12 11 11 11 10 10 10 10 10 10 9 9 9 8 8 8 7 7 7 6 6 6 6 5 5 5 4 4 4 4 4 5 5 5 5 6 6 6 6 6 6
12 12 11 11 10 10 10 10 9 9 9 8 8 8 7 7 6 6 6 6 6 5 5 5 5 5 4 4 3 3 3 3 4 4 4 4 4 5 5 5 5 5 5
12 11 11 10 10 9 9 9 9 8 8 8 7 6 6 5 5 5 5 5 4 4 4 4 3 3 3 3 2 2 2 2 3 3 3 3 3 4 3 3 3 3 4
11 11 10 9 9 8 8 8 8 7 7 6 5 5 5 4 4 4 4 4 3 3 3 3 2 2 1 1 1 2 1 2 2 2 2 3 3 3 2 2 2 2 2
10 10 9 8 8 8 8 7 7 6 5 5 4 4 4 4 3 3 3 2 2 2 2 2 1 1 1 1 1 1 1 1 1 1 1 2 2 1 1 2 1 1 1
10 9 8 8 7 7 6 6 5 4 4 4 3 3 3 3 2 1 1 1 1 0 0 0 0 -0 -0 -0 -1 -1 -1 -1 -1 -1 0 0 -0 0 1 1 1 1 -0
9 8 7 7 6 6 5 4 3 3 3 3 3 2 2 1 1 0 0 -0 -1 -1 -1 -1 -1 -2 -1 -1 -2 -2 -2 -2 -2 -2 -1 -1 -2 -2 -2 -2 -1 -1 -1
8 7 6 5 4 4 4 3 3 3 2 2 2 1 0 -0 -0 -1 -1 -2 -2 -2 -3 -3 -3 -3 -3 -3 -3 -3 -3 -3 -3 -3 -3 -3 -3 -3 -3 -3 -3 -2 -1
6 6 5 4 4 3 3 2 2 2 2 1 1 -0 -1 -1 -2 -2 -2 -3 -3 -3 -4 -4 -4 -4 -4 -4 -5 -5 -5 -5 -5 -5 -4 -4 -4 -4 -4 -4 -3 -3 -2
6 5 4 4 3 2 2 2 1 1 0 -0 -1 -1 -2 -2 -3 -3 -3 -4 -4 -4 -4 -5 -5 -5 -6 -6 -6 -6 -5 -5 -5 -5 -5 -5 -5 -5 -4 -4 -3 -3 -2
5 5 4 3 2 1 1 1 0 -1 -1 -1 -1 -2 -2 -3 -4 -4 -4 -4 -5 -5 -6 -6 -7 -7 -7 -7 -6 -6 -6 -5 -5 -5 -6 -6 -5 -5 -4 -4 -3 -3 -3
4 3 3 1 0 0 -0 -0 -1 -1 -2 -2 -2 -2 -3 -4 -4 -5 -5 -5 -6 -7 -7 -8 -8 -8 -7 -7 -7 -6 -6 -6 -6 -6 -6 -6 -6 -5 -5 -5 -4 -4 -4
2 1 0 -0 -0 -0 -1 -1 -2 -2 -2 -3 -3 -3 -4 -4 -5 -5 -6 -6 -7 -8 -8 -8 -8 -8 -8 -7 -7 -7 -7 -7 -7 -7 -7 -7 -7 -7 -7 -6 -5 -5 -4
0 -1 -1 -1 -1 -1 -1 -2 -2 -3 -3 -3 -3 -4 -4 -5 -6 -6 -6 -7 -8 -8 -8 -8 -8 -8 -8 -8 -7 -7 -7 -7 -8 -8 -8 -8 -8 -8 -7 -7 -6 -5 -5
-1 -1 -1 -1 -1 -1 -2 -2 -3 -3 -4 -4 -4 -5 -5 -6 -7 -7 -7 -7 -8 -9 -9 -9 -8 -8 -8 -8 -8 -8 -8 -8 -8 -8 -9 -9 -9 -9 -8 -8 -7 -6 -6
Wind_Speed
4 7 9 10 9 11 10 9 8 3 4 4 5 5 6 6 5 7 7 8 9 10 9 10 10 9 11 13 12 11 11 12 7 6 10 12 14 17 15 11 13 16 14
7 10 10 10 11 11 10 10 10 9 2 3 3 2 2 3 5 5 6 7 8 8 10 12 12 11 11 13 12 11 11 11 8 7 7 7 7 10 12 13 16 17 13
8 9 10 10 11 12 11 10 11 11 9 5 3 3 3 2 3 3 4 6 7 8 11 13 13 11 11 12 14 12 15 15 11 12 12 9 9 5 5 8 11 13 13
8 7 8 9 9 9 9 10 11 11 11 10 8 7 4 3 3 3 4 6 6 8 9 11 12 12 11 13 14 14 14 15 14 11 13 15 8 9 7 6 7 10 13
8 7 7 7 8 9 9 10 11 11 11 10 9 8 7 4 4 4 6 7 7 7 7 8 8 9 10 12 13 14 14 13 15 13 11 13 14 16 14 16 13 9 11
7 6 5 7 8 8 9 9 10 11 10 11 10 10 10 9 8 8 9 8 6 6 10 10 9 8 8 9 11 12 13 14 15 14 13 12 10 10 14 17 17 16 12
8 7 6 6 7 8 8 8 9 10 10 11 11 10 9 9 8 7 7 7 6 5 10 9 10 9 9 9 10 10 12 12 14 15 14 13 14 13 15 17 18 17 12
7 7 7 5 4 7 8 8 9 10 10 10 9 9 8 6 6 6 6 6 6 6 9 10 11 11 11 11 10 9 10 10 11 13 14 12 12 12 14 16 18 20 16
8 8 6 5 4 7 8 8 9 9 9 9 9 9 9 9 8 8 8 7 8 9 12 12 12 13 12 12 12 10 11 11 10 11 12 10 10 10 10 11 13 17 21
7 7 5 4 6 7 7 8 9 8 8 9 9 8 8 9 8 8 10 10 10 11 12 13 14 14 13 13 13 12 12 13 13 11 13 13 11 10 9 10 11 12 17
8 7 4 5 8 7 7 8 8 8 9 9 8 8 8 8 9 9 9 10 9 11 11 12 13 13 13 13 13 14 15 14 14 12 13 15 14 11 10 9 9 10 12
7 6 7 8 7 7 7 7 7 8 8 7 7 8 8 9 10 10 11 11 11 12 12 12 12 13 13 13 13 15 14 13 14 15 15 15 13 14 12 11 11 12 11
7 8 8 8 7 6 6 7 7 7 7 7 8 8 9 9 10 10 11 12 13 14 14 15 16 16 15 14 14 13 12 13 15 15 14 13 12 14 13 14 14 13 14
9 8 8 7 6 6 6 6 6 7 7 7 7 7 8 9 9 10 12 13 14 15 15 16 17 17 17 17 14 14 16 14 14 12 11 11 12 14 15 14 14 15 17
9 9 8 6 5 5 5 6 6 6 7 7 7 7 8 9 10 11 12 13 13 15 15 16 17 16 16 15 20 21 20 17 13 11 11 11 14 16 14 16 17 18 17
9 8 7 6 5 5 4 4 5 5 6 6 7 8 9 10 11 12 12 14 14 15 16 16 17 18 18 26 31 27 20 14 13 14 14 14 13 14 24 27 25 24 21
9 7 6 5 4 4 3 3 3 4 5 6 7 9 10 11 12 13 14 14 15 15 16 16 17 18 20 29 31 29 17 14 14 15 16 17 16 20 18 23 26 24 27
8 7 5 4 3 2 2 2 4 5 6 6 7 9 10 11 12 12 13 13 13 14 15 16 16 16 21 29 29 27 16 13 12 13 16 15 13 16 21 20 21 22 21
7 6 4 3 3 2 2 3 4 6 7 8 8 9 10 11 12 13 13 13 14 14 14 15 16 17 19 26 28 31 15 14 14 15 15 17 14 24 29 22 22 25 23
6 5 4 3 3 2 3 5 6 7 8 8 8 9 9 10 12 13 12 12 13 14 15 16 15 16 16 24 30 30 14 14 14 13 14 21 24 29 32 22 21 24 23
6 5 4 3 2 3 5 6 6 7 8 8 8 8 9 9 11 9 10 13 14 14 14 15 14 14 17 23 28 29 16 14 15 14 13 13 29 34 34 30 19 22 26
5 5 4 2 3 4 5 5 7 7 8 8 9 9 9 10 11 11 11 12 12 13 13 13 14 10 13 19 23 29 27 25 18 15 13 16 32 34 32 24 22 29 26
5 4 3 2 3 4 3 5 7 8 8 8 9 10 10 9 9 10 12 11 10 10 12 12 13 13 12 15 25 27 29 30 19 16 25 30 31 27 20 23 28 23 15
4 3 1 2 4 4 5 6 8 8 8 9 10 9 9 9 8 8 8 10 10 11 12 12 14 14 12 11 12 14 16 21 19 16 21 26 25 21 22 21 17 12 13
3 1 2 4 5 6 7 7 7 8 9 9 9 9 8 9 9 9 9 11 9 12 16 13 13 15 15 17 28 23 16 16 18 21 12 11 14 14 13 13 13 13 13
2 2 3 4 5 6 8 8 8 8 8 9 9 8 8 8 9 10 13 18 18 23 24 23 21 17 21 28 29 29 27 28 30 20 13 13 14 15 15 16 17 16 15
Wind_Direction
43 28 20 10 13 19 23 24 24 333 193 180 194 207 225 230 232 233 233 229 227 224 224 238 242 232 238 243 237 239 244 250 236 246 264 260 254 255 256 251 253 254 250
39 24 17 14 18 22 21 24 20 14 14 183 168 173 207 229 239 252 249 239 235 232 235 239 245 240 241 246 244 235 245 254 226 231 251 271 271 255 249 246 248 251 250
54 27 16 14 20 24 23 32 28 26 27 45 96 86 67 17 357 311 281 265 251 248 248 249 250 247 240 247 247 238 241 253 248 232 240 252 259 275 262 239 241 242 245
59 42 27 22 20 16 21 31 33 35 32 35 52 59 53 18 330 309 302 302 288 277 270 266 262 258 252 249 250 245 242 245 255 248 236 239 242 246 271 253 234 234 240
80 63 43 36 27 21 25 24 31 34 32 40 50 55 47 20 344 348 354 349 340 335 331 317 297 279 269 263 261 259 253 248 250 253 248 246 246 245 254 269 268 250 240
111 95 63 46 34 27 26 24 30 28 22 29 33 37 32 20 14 6 1 355 345 346 355 350 346 331 312 294 284 277 271 266 262 260 256 250 245 244 249 259 266 269 265
138 121 98 68 45 34 28 27 34 30 23 30 31 27 25 24 21 9 1 0 351 342 346 348 345 343 337 327 316 304 293 284 280 278 275 269 263 260 260 265 272 272 267
152 145 135 108 64 37 31 31 42 39 31 33 29 27 27 28 21 13 6 358 347 332 337 340 338 335 333 331 328 319 308 302 294 292 289 288 282 275 271 272 278 282 279
171 154 137 121 74 45 43 51 58 48 34 28 24 21 18 18 12 7 4 357 349 344 342 337 334 330 328 327 326 320 315 310 302 297 292 290 287 282 277 274 272 278 285
173 157 150 119 76 74 65 57 57 50 37 31 27 22 15 13 8 6 1 352 345 340 337 334 331 327 325 324 322 319 315 312 309 305 302 300 296 291 286 282 280 277 280
174 168 144 96 92 79 66 59 49 42 32 24 19 16 11 7 4 0 351 342 337 333 331 329 328 326 322 321 319 317 316 314 313 314 310 307 305 302 298 294 290 286 286
163 138 112 103 93 81 71 60 45 36 24 16 16 15 13 9 5 357 349 345 342 339 335 333 331 328 324 319 316 313 315 318 317 313 308 307 311 308 306 303 299 296 289
135 118 110 104 96 86 72 57 40 26 15 14 13 15 11 4 356 349 346 346 343 340 339 338 334 330 327 323 315 309 315 315 311 309 307 309 313 311 309 308 305 301 297
139 128 116 108 97 84 69 54 35 23 18 12 9 10 1 352 346 345 344 343 341 338 337 334 331 327 326 322 320 326 319 313 309 306 303 305 309 311 312 311 306 307 305
147 134 128 120 104 86 66 50 30 15 8 2 3 357 350 348 346 344 340 338 336 334 330 330 328 327 326 321 326 325 320 314 310 308 303 302 302 300 313 319 316 315 311
143 136 131 122 109 97 80 53 23 1 358 359 356 351 352 349 346 341 337 335 334 331 330 328 326 325 324 321 322 324 319 317 319 322 321 315 307 321 326 320 317 314 309
147 141 133 129 124 112 87 47 5 357 0 359 355 355 351 345 340 337 335 333 330 327 326 323 323 320 319 320 322 324 332 327 322 322 322 319 320 331 322 317 318 314 308
139 134 141 143 131 101 60 29 12 5 359 356 352 350 345 338 333 331 328 325 325 323 320 319 318 317 318 321 325 331 330 318 313 316 315 310 315 320 321 318 316 311 306
138 148 155 146 121 78 45 30 12 3 359 351 344 339 335 331 330 327 323 320 321 318 315 316 316 316 317 322 328 329 323 320 317 316 313 311 309 314 319 318 312 308 304
141 142 130 114 89 41 34 30 8 357 343 331 323 321 320 321 320 316 313 315 316 313 314 314 313 311 313 319 326 325 318 316 314 311 308 310 314 316 316 312 307 305 306
143 132 123 101 59 34 33 15 350 329 313 309 309 311 312 313 311 310 313 313 314 314 313 312 311 308 311 320 323 323 323 317 316 315 314 314 316 314 311 309 303 304 313
143 138 123 85 41 28 21 346 317 303 302 304 306 308 308 310 317 312 311 310 312 314 314 314 313 312 314 318 320 323 325 325 322 319 317 315 314 312 312 312 311 316 318
140 121 100 43 354 352 347 313 301 304 307 308 307 307 306 301 302 306 310 313 313 314 314 315 316 318 317 317 321 325 327 327 326 319 319 318 317 320 320 315 317 320 315
124 108 77 306 308 310 303 292 297 305 308 306 304 303 304 306 304 305 306 309 311 311 312 314 316 316 315 315 319 324 324 326 325 320 320 323 323 323 319 317 314 310 306
132 166 261 284 290 294 297 300 302 305 303 300 300 303 304 307 312 310 306 307 299 306 314 315 316 316 317 319 325 328 325 330 328 329 323 325 325 322 320 318 315 314 315
168 260 284 288 290 296 298 297 294 293 297 307 310 309 308 308 308 310 311 308 310 313 316 317 317 316 316 321 325 326 329 335 336 333 325 325 323 320 322 322 320 319 320
Height
1483 1482 1480 1479 1476 1474 1473 1472 1472 1472 1473 1475 1477 1478 1478 1478 1479 1479 1479 1479 1478 1476 1474 1472 1470 1468 1466 1463 1461 1460 1458 1456 1455 1453 1448 1445 1444 1441 1437 1437 1436 1434 1432
1483 1482 1481 1480 1478 1476 1474 1473 1472 1471 1471 1472 1473 1475 1476 1476 1477 1477 1476 1475 1473 1471 1469 1466 1464 1462 1459 1456 1454 1453 1450 1448 1449 1446 1442 1437 1434 1430 1430 1428 1426 1424 1423
1483 1483 1482 1481 1479 1477 1475 1474 1473 1472 1471 1471 1471 1472 1472 1473 1473 1473 1471 1470 1468 1465 1463 1460 1458 1455 1453 1450 1449 1447 1444 1441 1440 1438 1436 1432 1425 1423 1420 1419 1418 1416 1415
1484 1484 1483 1482 1481 1479 1478 1477 1476 1474 1472 1471 1471 1471 1470 1470 1469 1468 1466 1464 1462 1460 1457 1455 1452 1449 1446 1444 1442 1440 1437 1434 1431 1429 1426 1423 1419 1417 1411 1409 1408 1406 1404
1485 1485 1485 1484 1483 1482 1481 1480 1478 1476 1474 1473 1472 1471 1470 1469 1467 1466 1464 1461 1459 1457 1454 1451 1448 1444 1441 1438 1436 1434 1431 1428 1424 1421 1418 1414 1411 1408 1405 1399 1396 1395 1392
1486 1486 1486 1485 1484 1483 1482 1481 1479 1478 1476 1475 1473 1471 1470 1468 1467 1464 1462 1460 1457 1455 1451 1448 1444 1441 1437 1434 1431 1428 1425 1422 1418 1414 1411 1407 1403 1399 1397 1391 1386 1384 1382
1485 1486 1486 1486 1485 1484 1483 1481 1480 1479 1477 1475 1474 1472 1471 1469 1466 1464 1461 1458 1455 1452 1448 1445 1441 1437 1434 1430 1427 1423 1419 1416 1412 1408 1405 1401 1397 1393 1390 1384 1378 1374 1371
1484 1485 1485 1485 1484 1483 1482 1481 1480 1479 1478 1476 1474 1473 1471 1468 1466 1463 1460 1457 1453 1449 1445 1441 1437 1433 1430 1426 1422 1417 1414 1410 1405 1401 1397 1393 1389 1386 1383 1379 1373 1365 1359
1482 1483 1483 1484 1484 1483 1482 1481 1480 1479 1477 1476 1474 1472 1469 1466 1464 1461 1458 1454 1450 1446 1442 1437 1433 1428 1424 1420 1415 1410 1406 1402 1398 1394 1389 1385 1381 1377 1374 1370 1367 1362 1352
1480 1482 1483 1483 1483 1482 1481 1481 1480 1478 1476 1474 1472 1470 1467 1464 1461 1458 1454 1451 1446 1442 1437 1432 1427 1423 1418 1413 1408 1403 1399 1395 1390 1386 1381 1376 1372 1368 1365 1361 1358 1354 1348
1478 1480 1482 1481 1481 1480 1480 1479 1478 1477 1475 1472 1469 1467 1464 1461 1458 1454 1450 1445 1441 1436 1431 1426 1421 1417 1412 1408 1403 1398 1393 1388 1383 1379 1374 1369 1365 1360 1357 1353 1349 1344 1340
1478 1479 1479 1479 1478 1478 1478 1477 1476 1474 1472 1469 1467 1464 1460 1457 1453 1448 1444 1440 1435 1430 1426 1420 1415 1410 1405 1401 1397 1392 1387 1382 1377 1372 1367 1362 1358 1353 1349 1344 1339 1335 1331
1475 1476 1476 1476 1476 1476 1475 1474 1473 1471 1469 1466 1463 1460 1456 1452 1448 1444 1439 1434 1430 1425 1420 1415 1409 1404 1399 1394 1391 1387 1382 1376 1371 1366 1361 1356 1352 1346 1341 1336 1331 1326 1321
1473 1473 1473 1473 1473 1474 1474 1473 1471 1469 1467 1464 1460 1456 1452 1448 1444 1440 1435 1430 1425 1420 1414 1409 1404 1399 1393 1389 1385 1380 1374 1369 1364 1360 1355 1350 1346 1340 1335 1328 1323 1318 1312
1470 1470 1471 1471 1472 1472 1471 1470 1469 1467 1464 1460 1457 1452 1448 1444 1440 1436 1431 1426 1421 1416 1410 1404 1398 1394 1389 1384 1380 1374 1367 1362 1357 1352 1348 1343 1338 1333 1329 1324 1316 1310 1304
1468 1469 1470 1470 1470 1469 1469 1468 1466 1463 1460 1457 1453 1449 1445 1441 1436 1432 1427 1423 1418 1413 1407 1401 1395 1389 1384 1379 1375 1370 1362 1356 1351 1345 1339 1335 1330 1325 1320 1314 1309 1304 1299
1466 1468 1468 1469 1469 1469 1467 1465 1462 1459 1456 1453 1449 1445 1441 1437 1433 1429 1424 1419 1414 1409 1403 1398 1391 1385 1379 1374 1369 1364 1357 1351 1345 1339 1333 1328 1323 1317 1311 1303 1297 1292 1289
1465 1467 1468 1469 1468 1466 1464 1461 1459 1456 1453 1450 1446 1441 1437 1432 1429 1425 1420 1416 1410 1405 1399 1393 1387 1380 1374 1369 1364 1358 1351 1344 1339 1333 1328 1322 1316 1310 1305 1297 1288 1281 1276
1465 1466 1467 1467 1465 1463 1460 1458 1455 1453 1449 1446 1442 1438 1433 1428 1424 1420 1416 1411 1406 1400 1394 1388 1382 1375 1369 1365 1359 1352 1344 1337 1331 1326 1320 1315 1309 1303 1299 1292 1283 1273 1266
1464 1465 1465 1464 1462 1459 1456 1454 1452 1449 1445 1442 1438 1434 1430 1425 1421 1417 1412 1407 1401 1395 1389 1382 1376 1371 1365 1360 1354 1348 1340 1332 1326 1319 1314 1308 1302 1296 1291 1285 1278 1269 1260
1462 1462 1461 1460 1458 1455 1453 1450 1448 1445 1441 1438 1434 1430 1426 1422 1417 1412 1408 1402 1396 1389 1383 1376 1370 1365 1360 1354 1348 1343 1337 1329 1321 1313 1306 1300 1294 1287 1281 1276 1271 1264 1256
1459 1458 1457 1455 1453 1451 1449 1447 1444 1441 1437 1433 1429 1425 1422 1417 1412 1407 1402 1397 1390 1383 1376 1370 1364 1359 1354 1349 1343 1338 1332 1325 1316 1308 1301 1294 1287 1279 1273 1267 1261 1256 1248
1456 1455 1453 1452 1450 1449 1447 1444 1440 1437 1433 1429 1424 1420 1416 1412 1407 1402 1396 1390 1385 1379 1372 1367 1361 1354 1349 1343 1339 1333 1326 1319 1311 1303 1296 1288 1280 1272 1265 1259 1254 1247 1240
1452 1451 1450 1449 1448 1446 1444 1440 1436 1432 1428 1424 1420 1415 1411 1406 1402 1397 1392 1386 1380 1375 1369 1364 1358 1351 1345 1339 1333 1327 1319 1312 1304 1296 1288 1281 1273 1266 1260 1252 1246 1240 1234
1449 1448 1448 1447 1445 1442 1439 1436 1433 1428 1424 1419 1415 1410 1406 1401 1396 1391 1387 1381 1376 1373 1367 1361 1354 1348 1341 1335 1331 1324 1316 1308 1300 1292 1282 1275 1267 1259 1252 1246 1239 1234 1228
1446 1445 1444 1442 1440 1437 1434 1431 1428 1423 1418 1413 1409 1405 1401 1396 1391 1385 1379 1374 1371 1366 1361 1356 1351 1344 1338 1331 1325 1319 1312 1304 1297 1288 1280 1272 1265 1257 1250 1242 1235 1229 1222